Location: Unspecified
(0.0000°N, 0.0000°E)
Time: 15:00:42
(UTC+00:00)

Altair - Pass Details

Date: 02 November 2021
Orbit: 1502 x 1682 km, 47.2° (Epoch: 26 November)

Event Time Altitude Azimuth Distance (km) Brightness Sun altitude
Rises 22:18:27 0° 243° (WSW) 4,679 10.4 -64.1°
Enters shadow 22:21:12 - 251° (WSW) 3,893 9.9 -64.7°
Reaches altitude 10° 22:22:00 10° 253° (WSW) 3,676 - -64.8°
Maximum altitude 22:29:43 30° 311° (NW) 2,425 - -66.3°
Drops below altitude 10° 22:37:24 10° 9° (N) 3,643 - -67.8°
Sets 22:40:58 0° 20° (NNE) 4,631 - -68.4°
